TimeCDT,TemperatureF,Dew PointF,Humidity,Sea Level PressureIn,VisibilityMPH,Wind Direction,Wind SpeedMPH,Gust SpeedMPH,PrecipitationIn,Events,Conditions,WindDirDegrees,DateUTC
12:13 AM,60.8,57.2,88,29.79,10.0,Calm,Calm,-,N/A,,Scattered Clouds,0,2013-06-27 05:13:00
12:33 AM,59.0,57.2,94,29.78,4.0,Calm,Calm,-,N/A,,Clear,0,2013-06-27 05:33:00
12:53 AM,60.8,57.2,88,29.79,7.0,Calm,Calm,-,N/A,,Scattered Clouds,0,2013-06-27 05:53:00
1:13 AM,59.0,57.2,94,29.77,7.0,Calm,Calm,-,N/A,,Scattered Clouds,0,2013-06-27 06:13:00
1:33 AM,59.0,57.2,94,29.77,4.0,Calm,Calm,-,N/A,,Clear,0,2013-06-27 06:33:00
1:53 AM,57.2,57.2,100,29.77,2.5,Calm,Calm,-,N/A,,Clear,0,2013-06-27 06:53:00
2:13 AM,60.8,57.2,88,29.77,10.0,Calm,Calm,-,N/A,,Clear,0,2013-06-27 07:13:00
2:33 AM,60.8,57.2,88,29.78,10.0,Calm,Calm,-,N/A,,Scattered Clouds,0,2013-06-27 07:33:00
2:53 AM,60.8,57.2,88,29.80,10.0,North,4.6,-,N/A,Thunderstorm,Unknown,10,2013-06-27 07:53:00
3:13 AM,59.0,57.2,94,29.78,7.0,Calm,Calm,-,N/A,Thunderstorm,Thunderstorm,0,2013-06-27 08:13:00
3:33 AM,57.2,55.4,94,29.78,10.0,Calm,Calm,-,N/A,,Clear,0,2013-06-27 08:33:00
3:53 AM,57.2,55.4,94,29.77,2.5,Calm,Calm,-,N/A,,Clear,0,2013-06-27 08:53:00
4:13 AM,57.2,55.4,94,29.76,0.5,Calm,Calm,-,N/A,Fog,Fog,0,2013-06-27 09:13:00
4:33 AM,55.4,53.6,94,29.76,0.5,Calm,Calm,-,N/A,Fog,Fog,0,2013-06-27 09:33:00
4:53 AM,57.2,55.4,94,29.76,0.8,Calm,Calm,-,N/A,,Mostly Cloudy,0,2013-06-27 09:53:00
5:13 AM,57.2,55.4,94,29.76,0.5,Calm,Calm,-,N/A,Fog,Fog,0,2013-06-27 10:13:00
5:33 AM,57.2,55.4,94,29.76,0.2,Calm,Calm,-,N/A,Fog,Fog,0,2013-06-27 10:33:00
5:53 AM,57.2,55.4,94,29.76,0.2,Calm,Calm,-,N/A,Fog,Fog,0,2013-06-27 10:53:00
6:13 AM,57.2,55.4,94,29.76,0.2,Calm,Calm,-,N/A,Fog,Fog,0,2013-06-27 11:13:00
6:33 AM,60.8,57.2,88,29.76,1.8,Calm,Calm,-,N/A,,Mostly Cloudy,0,2013-06-27 11:33:00
6:53 AM,62.6,60.8,94,29.77,10.0,Calm,Calm,-,N/A,,Clear,0,2013-06-27 11:53:00
7:13 AM,64.4,62.6,94,29.76,10.0,SW,3.5,-,N/A,,Clear,230,2013-06-27 12:13:00
7:33 AM,64.4,62.6,94,29.76,10.0,SW,5.8,-,N/A,,Clear,230,2013-06-27 12:33:00
7:53 AM,66.2,64.4,94,29.76,10.0,SW,5.8,-,N/A,,Clear,230,2013-06-27 12:53:00
8:13 AM,66.2,62.6,88,29.76,10.0,WSW,6.9,-,N/A,,Clear,240,2013-06-27 13:13:00
8:33 AM,69.8,62.6,78,29.76,10.0,WSW,3.5,-,N/A,,Clear,250,2013-06-27 13:33:00
8:53 AM,69.8,62.6,78,29.76,10.0,West,6.9,-,N/A,,Clear,260,2013-06-27 13:53:00
9:13 AM,71.6,62.6,73,29.76,10.0,WSW,10.4,-,N/A,,Clear,240,2013-06-27 14:13:00
9:33 AM,71.6,62.6,73,29.76,10.0,WSW,6.9,-,N/A,,Clear,250,2013-06-27 14:33:00
9:53 AM,73.4,64.4,73,29.76,10.0,WSW,6.9,-,N/A,,Clear,250,2013-06-27 14:53:00
10:13 AM,73.4,62.6,69,29.76,10.0,West,5.8,-,N/A,,Clear,270,2013-06-27 15:13:00
10:33 AM,73.4,62.6,69,29.76,10.0,WSW,10.4,-,N/A,,Clear,250,2013-06-27 15:33:00
10:53 AM,75.2,62.6,65,29.76,10.0,West,9.2,-,N/A,,Clear,260,2013-06-27 15:53:00
11:13 AM,75.2,62.6,65,29.76,10.0,WNW,6.9,-,N/A,,Clear,300,2013-06-27 16:13:00
11:33 AM,75.2,62.6,65,29.76,10.0,West,9.2,16.1,N/A,,Scattered Clouds,270,2013-06-27 16:33:00
11:54 AM,75.2,62.6,65,29.76,10.0,West,8.1,-,N/A,,Scattered Clouds,280,2013-06-27 16:54:00
12:13 PM,77.0,62.6,61,29.77,10.0,West,6.9,-,N/A,,Scattered Clouds,280,2013-06-27 17:13:00
12:33 PM,75.2,62.6,65,29.76,10.0,West,9.2,-,N/A,,Scattered Clouds,270,2013-06-27 17:33:00
12:53 PM,77.0,60.8,57,29.76,10.0,WNW,9.2,17.3,N/A,,Scattered Clouds,290,2013-06-27 17:53:00
1:13 PM,78.8,62.6,57,29.76,10.0,West,6.9,17.3,N/A,,Scattered Clouds,260,2013-06-27 18:13:00
1:33 PM,78.8,60.8,54,29.76,10.0,West,9.2,19.6,N/A,,Clear,270,2013-06-27 18:33:00
1:53 PM,78.8,59.0,51,29.77,10.0,West,9.2,20.7,N/A,,Scattered Clouds,260,2013-06-27 18:53:00
2:13 PM,77.0,59.0,54,29.77,10.0,West,9.2,17.3,N/A,,Scattered Clouds,280,2013-06-27 19:13:00
2:33 PM,78.8,57.2,47,29.77,10.0,West,8.1,19.6,N/A,,Scattered Clouds,280,2013-06-27 19:33:00
2:53 PM,78.8,57.2,47,29.77,10.0,West,10.4,19.6,N/A,,Clear,280,2013-06-27 19:53:00
3:13 PM,78.8,55.4,44,29.77,10.0,West,12.7,19.6,N/A,,Clear,270,2013-06-27 20:13:00
3:33 PM,78.8,55.4,44,29.77,10.0,West,9.2,19.6,N/A,,Scattered Clouds,280,2013-06-27 20:33:00
3:53 PM,78.8,55.4,44,29.76,10.0,West,10.4,25.3,N/A,,Scattered Clouds,270,2013-06-27 20:53:00
4:13 PM,78.8,55.4,44,29.76,10.0,West,8.1,19.6,N/A,,Clear,280,2013-06-27 21:13:00
4:33 PM,80.6,55.4,42,29.76,10.0,West,12.7,19.6,N/A,,Scattered Clouds,260,2013-06-27 21:33:00
4:53 PM,77.0,55.4,47,29.76,10.0,West,9.2,18.4,N/A,,Scattered Clouds,280,2013-06-27 21:53:00
5:13 PM,78.8,57.2,47,29.75,10.0,WSW,5.8,19.6,N/A,,Scattered Clouds,250,2013-06-27 22:13:00
5:33 PM,78.8,57.2,47,29.74,10.0,West,9.2,17.3,N/A,,Clear,270,2013-06-27 22:33:00
5:53 PM,78.8,55.4,44,29.74,10.0,West,11.5,27.6,N/A,,Clear,260,2013-06-27 22:53:00
6:13 PM,78.8,57.2,47,29.75,10.0,West,10.4,24.2,N/A,,Clear,270,2013-06-27 23:13:00
6:33 PM,77.0,57.2,50,29.75,10.0,WSW,11.5,19.6,N/A,,Scattered Clouds,250,2013-06-27 23:33:00
6:53 PM,77.0,57.2,50,29.74,10.0,West,9.2,17.3,N/A,,Scattered Clouds,260,2013-06-27 23:53:00
7:13 PM,77.0,57.2,50,29.74,10.0,West,8.1,18.4,N/A,,Scattered Clouds,270,2013-06-28 00:13:00
7:33 PM,75.2,57.2,53,29.74,10.0,WSW,9.2,16.1,N/A,,Scattered Clouds,250,2013-06-28 00:33:00
7:53 PM,75.2,55.4,50,29.75,10.0,West,10.4,21.9,N/A,,Clear,280,2013-06-28 00:53:00
8:13 PM,73.4,55.4,53,29.76,10.0,NW,9.2,-,N/A,,Scattered Clouds,320,2013-06-28 01:13:00
8:33 PM,68.0,60.8,78,29.77,10.0,NW,8.1,-,N/A,,Scattered Clouds,310,2013-06-28 01:33:00
8:53 PM,66.2,59.0,78,29.77,10.0,NW,5.8,-,N/A,,Clear,310,2013-06-28 01:53:00
9:13 PM,66.2,57.2,73,29.77,10.0,NW,3.5,-,N/A,,Clear,310,2013-06-28 02:13:00
9:33 PM,66.2,57.2,73,29.77,10.0,NW,5.8,-,N/A,,Scattered Clouds,310,2013-06-28 02:33:00
9:53 PM,66.2,57.2,73,29.77,10.0,NW,6.9,-,N/A,,Mostly Cloudy,310,2013-06-28 02:53:00
10:13 PM,66.2,57.2,73,29.77,10.0,WNW,5.8,-,N/A,,Mostly Cloudy,300,2013-06-28 03:13:00
10:33 PM,66.2,57.2,73,29.77,10.0,WNW,3.5,-,N/A,,Scattered Clouds,300,2013-06-28 03:33:00
10:53 PM,66.2,57.2,73,29.77,10.0,NNW,3.5,-,N/A,,Mostly Cloudy,330,2013-06-28 03:53:00
11:13 PM,66.2,57.2,73,29.77,10.0,NW,3.5,-,N/A,,Overcast,320,2013-06-28 04:13:00
11:33 PM,64.4,59.0,83,29.77,7.0,NNW,5.8,-,N/A,Rain,Rain,340,2013-06-28 04:33:00
11:53 PM,62.6,60.8,94,29.77,7.0,NNW,4.6,-,N/A,Rain,Light Rain,330,2013-06-28 04:53:00